Powrót do katalogu

FENGYUN 1C DEB

LostPO
NORAD 36656·DEBRIS·🇨🇳 China

Wystrzelony May 10, 1999 z Taiyuan Satellite Launch Center

Loading…

Następne Przeloty (najbliższe 24 godziny)

TLE

NieaktualneSource: Space-Track

Epoka: Aug 5, 2026, 23:49 UTC

1 36656U 99025DYA 26217.99291198  .00000805  00000-0  85150-3 0  9992
2 36656  97.4302 296.1415 0332643 249.5176 106.9971 13.54989988620449

Śledź FENGYUN 1C DEB w czasie rzeczywistym z AllMySat

Download on the App Store